Location: Carnetin
(48.9010°N, 2.7059°E)
Time: 20:49:12
(UTC+00:00)

Cosmos 1825 - Pass Details

Date: 05 June 2022
Orbit: 496 x 499 km, 82.5° (Epoch: 24 June)

Event Time Altitude Azimuth Distance (km) Brightness Sun altitude
Exits shadow 01:32:46 - 140° (SE) 2,147 5.1 -14.8°
Reaches altitude 10° 01:34:15 10° 126° (SE) 1,697 4.7 -14.7°
Maximum altitude 01:36:37 16° 86° (E) 1,351 4.7 -14.5°
Drops below altitude 10° 01:39:00 10° 47° (NE) 1,707 6.0 -14.4°
Sets 01:41:42 0° 26° (NNE) 2,598 7.8 -14.2°
